Location: Bothwell
(42.3833°S, 147.0000°E)
Time: 05:42:56
(UTC+10:00)

Gurwin Techsat 1B - Visible Passes

Search period start: 25 September 2022 00:00
Search period end: 05 October 2022 01:00
Orbit: 811 x 814 km, 98.8° (Epoch: 24 September)

Date Brightness Start Highest point End Pass type
(mag) Time Alt. Az. Time Alt. Az. Time Alt. Az.
25 Sep 11.4 01:14:25 13° S 01:14:25 13° S 01:15:05 10° S visible
26 Sep 11.5 00:51:01 12° SSE 00:51:01 12° SSE 00:51:38 10° SSE visible
26 Sep 11.2 02:32:12 11° SSW 02:32:12 11° SSW 02:32:20 10° SSW visible
27 Sep 11.6 00:27:37 10° SSE 00:27:37 10° SSE 00:27:47 10° SSE visible
27 Sep 11.1 02:08:48 14° SSW 02:08:48 14° SSW 02:09:30 10° SSW visible
28 Sep 11.1 01:45:25 16° S 01:45:25 16° S 01:46:30 10° S visible
29 Sep 11.1 01:22:01 17° S 01:22:01 17° S 01:23:19 10° S visible
30 Sep 11.2 00:58:37 16° SSE 00:58:37 16° SSE 00:59:58 10° S visible
30 Sep 11.0 02:39:48 13° SSW 02:39:48 13° SSW 02:40:22 10° SSW visible
01 Oct 11.4 00:35:13 13° SSE 00:35:13 13° SSE 00:36:17 10° SSE visible
01 Oct 10.8 02:16:24 17° SSW 02:16:24 17° SSW 02:17:36 10° SSW visible
02 Oct 10.7 01:53:00 20° S 01:53:00 20° S 01:54:39 10° S visible
03 Oct 10.8 02:29:36 22° S 02:29:36 22° S 02:31:32 10° S visible
04 Oct 10.9 02:06:12 20° SSE 02:06:12 20° SSE 02:08:14 10° S visible
04 Oct 10.8 03:47:23 15° SW 03:47:23 15° SW 03:48:21 10° SSW visible
